Regional Weather Roundup
Issued by NWS State College, PA

Home | Current Version | Previous Version | Text Only | Print | Product List | Glossary On
Versions: 1 2 3 4 5 6 7 8 9 10 11 12 13 14 15 16 17 18 19 20 21 22 23 24 25 26 27 28 29 30 31 32 33 34 35 36 37 38 39 40 41 42 43 44 45 46 47 48 49 50
139
ASUS41 KCTP 230703
RWRCTP

REGIONAL WEATHER ROUNDUP
NATIONAL WEATHER SERVICE STATE COLLEGE PA
300 AM EDT SUN APR 23 2017

Note: "fair" indicates few or no clouds below 12,000 feet with no
significant weather and/or obstructions to visibility.

* = STATION THAT DOES NOT REPORT PRECIPITATION /E.G. RAIN...SNOW...ETC/
    THUNDER OR FOG.

PAZ002>004-007>009-013>016-020>023-029>032-230800-
WESTERN PENNSYLVANIA

CITY           SKY/WX    TMP DP  RH WIND       PRES   REMARKS
ERIE           CLEAR     35  32  88 S3        30.11F
MEADVILLE      CLEAR     37  34  89 CALM      30.09F
FRANKLIN*      CLEAR     34  27  75 N3        30.10F
NEW CASTLE     FAIR      38  34  85 NE3       30.10
BEAVER COUNTY  NOT AVBL
BUTLER*        CLEAR     37  30  75 NE8       30.10F
PITTSBURGH INT CLEAR     43  32  65 NE7       30.08S
PITTSBURGH     CLEAR     42  31  64 N6        30.06F
INDIANA*       CLEAR     39  36  87 CALM      30.10F
LATROBE        CLEAR     37  37 100 CALM      30.08S
WASHINGTON CO* PTCLDY    39  30  70 N5        30.08S
$$

PAZ004>006-010>012-017>019-024>028-033>037-041-042-045-046-049>053-230800-
CENTRAL PENNSYLVANIA

CITY           SKY/WX    TMP DP  RH WIND       PRES   REMARKS
BRADFORD       CLEAR     31  29  92 CALM      30.07F
DUBOIS         CLEAR     37  30  75 NE3       30.07F
CLEARFIELD     CLEAR     37  32  82 NW5       30.08F
JOHNSTOWN      CLEAR     38  33  82 E7        30.04F
ALTOONA        CLEAR     40  34  79 NE5       30.07S
STATE COLLEGE  CLEAR     38  34  85 CALM      30.08S
WILLIAMSPORT   CLEAR     37  34  89 CALM      30.08F
SELINSGROVE    CLOUDY    35  34  96 CALM      30.09F
FT INDIANTOWN  PTCLDY    40  38  91 CALM      30.07S
CAPITAL CITY   CLOUDY    49  34  56 N3        30.07F
HARRISBURG     CLOUDY    44  38  79 NW3       30.07F
YORK           CLOUDY    45  38  76 N5        30.07S
$$

PAZ038>040-043-044-047-048-054-055-060>062-067>071-230800-
EASTERN PENNSYLVANIA

CITY           SKY/WX    TMP DP  RH WIND       PRES   REMARKS
SCRANTON       CLEAR     37  34  89 E5        30.07S
MOUNT POCONO   CLOUDY    37  32  82 N7        30.02F
ALLENTOWN      MOCLDY    43  34  70 CALM      30.06S
QUAKERTOWN*    CLOUDY    45  36  70 N6        30.05F
READING        CLOUDY    44  37  76 N7        30.05F
LANCASTER      CLOUDY    45  38  76 N6        30.05F
COATESVILLE    CLOUDY    45  36  70 N6G12     30.05F
POTTSTOWN      CLOUDY    44  35  70 N5        30.05F
BLUE BELL      PTCLDY    43  36  75 CALM      30.06S
DOYLESTOWN     CLOUDY    44  36  73 N5        30.04S
WILLOW GROVE   NOT AVBL
NORTH PHILA    CLOUDY    45  37  73 N7        30.05F
PHILADELPHIA   CLOUDY    46  37  71 N8        30.05F
$$




USA.gov is the U.S. government's official web portal to all federal, state and local government web resources and services.